| time (UTC) | temp F | wind direction | speed MPH | gust MPH | rain 1hr in | rain 24hr in | rain mn in | humidity % | barometer mb |
| 20260831203846 | 83 | 115 | 0.0 | 0.0 | 0.00 | 0.12 | 0.00 | 81 | 1018.4 |
| 20260831203526 | 82 | 0 | 0.0 | 0.0 | 0.00 | 0.12 | 0.00 | 81 | 1018.8 |
| 20260831203346 | 83 | 115 | 0.0 | 0.0 | 0.00 | 0.12 | 0.00 | 81 | 1018.4 |
| 20260831203043 | 82 | 0 | 0.0 | 0.0 | 0.00 | 0.12 | 0.00 | 81 | 1018.9 |
| 20260831202844 | 83 | 115 | 0.0 | 0.0 | 0.00 | 0.12 | 0.00 | 80 | 1018.4 |
| 20260831202526 | 82 | 0 | 0.0 | 0.0 | 0.00 | 0.12 | 0.00 | 78 | 1018.9 |
| 20260831202339 | 82 | 115 | 0.0 | 0.0 | 0.00 | 0.12 | 0.00 | 77 | 1018.4 |
| 20260831202026 | 82 | 0 | 0.0 | 0.0 | 0.00 | 0.12 | 0.00 | 77 | 1019.0 |
| 20260831201835 | 82 | 115 | 0.0 | 0.0 | 0.00 | 0.12 | 0.00 | 78 | 1018.5 |
| 20260831201550 | 82 | 0 | 0.0 | 0.0 | 0.00 | 0.12 | 0.00 | 78 | 1019.0 |
| 20260831201328 | 82 | 115 | 0.0 | 0.0 | 0.00 | 0.12 | 0.00 | 79 | 1018.5 |
| 20260831201028 | 82 | 0 | 0.0 | 0.0 | 0.00 | 0.12 | 0.00 | 78 | 1019.0 |
| 20260831200828 | 82 | 115 | 0.0 | 0.0 | 0.00 | 0.12 | 0.00 | 78 | 1018.5 |
| 20260831200526 | 82 | 0 | 0.0 | 0.0 | 0.00 | 0.12 | 0.00 | 78 | 1019.0 |
| 20260831200411 | 82 | 115 | 0.0 | 0.0 | 0.00 | 0.12 | 0.00 | 79 | 1018.6 |
| 20260831200047 | 82 | 0 | 0.0 | 0.0 | 0.00 | 0.12 | 0.00 | 78 | 1019.0 |
| 20260831195847 | 82 | 115 | 0.0 | 0.0 | 0.00 | 0.12 | 0.00 | 78 | 1018.5 |
| 20260831195526 | 82 | 0 | 0.0 | 0.0 | 0.00 | 0.12 | 0.00 | 77 | 1018.9 |
| 20260831195403 | 82 | 115 | 0.0 | 0.0 | 0.00 | 0.12 | 0.00 | 77 | 1018.6 |
| 20260831195025 | 82 | 0 | 0.0 | 0.0 | 0.00 | 0.12 | 0.00 | 75 | 1019.0 |
| 20260831194841 | 82 | 115 | 0.0 | 0.0 | 0.00 | 0.12 | 0.00 | 77 | 1018.6 |
| 20260831194613 | 82 | 0 | 0.0 | 0.0 | 0.00 | 0.12 | 0.00 | 77 | 1019.0 |
| 20260831194358 | 82 | 115 | 0.0 | 0.0 | 0.00 | 0.12 | 0.00 | 76 | 1018.6 |
| 20260831194025 | 82 | 0 | 0.0 | 0.0 | 0.00 | 0.12 | 0.00 | 76 | 1019.0 |
| 20260831193836 | 82 | 115 | 0.0 | 0.0 | 0.00 | 0.12 | 0.00 | 77 | 1018.5 |
| 20260831193528 | 82 | 0 | 0.0 | 0.0 | 0.00 | 0.12 | 0.00 | 77 | 1019.0 |
| 20260831193336 | 82 | 115 | 0.0 | 0.0 | 0.00 | 0.12 | 0.00 | 78 | 1018.6 |
| 20260831193043 | 82 | 0 | 0.0 | 0.0 | 0.00 | 0.12 | 0.00 | 80 | 1019.1 |
| 20260831192853 | 82 | 115 | 0.0 | 0.0 | 0.00 | 0.12 | 0.00 | 79 | 1018.7 |
| 20260831192524 | 82 | 0 | 0.0 | 0.0 | 0.00 | 0.12 | 0.00 | 78 | 1019.2 |
| 20260831192409 | 82 | 115 | 0.0 | 0.0 | 0.00 | 0.12 | 0.00 | 78 | 1018.8 |
| 20260831192025 | 82 | 0 | 0.0 | 0.0 | 0.00 | 0.12 | 0.00 | 79 | 1019.2 |
| 20260831191845 | 82 | 115 | 0.0 | 0.0 | 0.00 | 0.12 | 0.00 | 78 | 1018.8 |
| 20260831191549 | 82 | 0 | 0.0 | 0.0 | 0.00 | 0.12 | 0.00 | 77 | 1019.4 |
| 20260831191342 | 82 | 115 | 0.0 | 0.0 | 0.00 | 0.12 | 0.00 | 77 | 1018.9 |
| 20260831191025 | 82 | 0 | 0.0 | 0.0 | 0.00 | 0.12 | 0.00 | 77 | 1019.5 |
| 20260831190845 | 82 | 115 | 0.0 | 0.0 | 0.00 | 0.12 | 0.00 | 78 | 1019.0 |
| 20260831190525 | 82 | 0 | 0.0 | 0.0 | 0.00 | 0.12 | 0.00 | 78 | 1019.5 |
| 20260831190341 | 82 | 115 | 0.0 | 0.0 | 0.00 | 0.12 | 0.00 | 79 | 1019.0 |
| 20260831185844 | 82 | 115 | 0.0 | 0.0 | 0.00 | 0.12 | 0.00 | 78 | 1019.0 |
| 20260831185527 | 82 | 0 | 0.0 | 0.0 | 0.00 | 0.12 | 0.00 | 76 | 1019.5 |
| 20260831185404 | 82 | 115 | 0.0 | 0.0 | 0.00 | 0.12 | 0.00 | 78 | 1019.1 |
| 20260831185026 | 82 | 0 | 0.0 | 0.0 | 0.00 | 0.12 | 0.00 | 78 | 1019.6 |
| 20260831184839 | 82 | 115 | 0.0 | 0.0 | 0.00 | 0.12 | 0.00 | 79 | 1019.2 |
| 20260831184544 | 82 | 0 | 0.0 | 0.0 | 0.00 | 0.12 | 0.00 | 76 | 1019.6 |
| 20260831184334 | 82 | 115 | 0.0 | 0.0 | 0.00 | 0.12 | 0.00 | 76 | 1019.1 |
| 20260831184028 | 82 | 0 | 0.0 | 0.0 | 0.00 | 0.12 | 0.00 | 77 | 1019.6 |
| 20260831183854 | 82 | 115 | 0.0 | 0.0 | 0.00 | 0.12 | 0.00 | 77 | 1019.2 |
| 20260831183526 | 82 | 0 | 0.0 | 0.0 | 0.00 | 0.12 | 0.00 | 76 | 1019.6 |
| 20260831183350 | 82 | 115 | 0.0 | 0.0 | 0.00 | 0.12 | 0.00 | 76 | 1019.1 |
| 20260831183042 | 82 | 0 | 0.0 | 0.0 | 0.00 | 0.12 | 0.00 | 77 | 1019.5 |
| 20260831182907 | 82 | 114 | 0.0 | 0.0 | 0.00 | 0.12 | 0.00 | 78 | 1019.1 |
| 20260831182525 | 82 | 0 | 0.0 | 0.0 | 0.00 | 0.12 | 0.00 | 76 | 1019.6 |
| 20260831182342 | 82 | 114 | 0.0 | 0.0 | 0.00 | 0.12 | 0.00 | 76 | 1019.2 |
| 20260831182026 | 82 | 0 | 0.0 | 0.0 | 0.00 | 0.12 | 0.00 | 76 | 1019.6 |
| 20260831181838 | 82 | 114 | 0.0 | 0.0 | 0.00 | 0.12 | 0.00 | 76 | 1019.2 |
| 20260831181559 | 82 | 0 | 0.0 | 0.0 | 0.00 | 0.12 | 0.00 | 76 | 1019.7 |
| 20260831181335 | 82 | 114 | 0.0 | 0.0 | 0.00 | 0.12 | 0.00 | 76 | 1019.2 |
| 20260831181025 | 82 | 0 | 0.0 | 0.0 | 0.00 | 0.12 | 0.00 | 75 | 1019.7 |
| 20260831180837 | 82 | 114 | 0.0 | 0.0 | 0.00 | 0.12 | 0.00 | 76 | 1019.2 |
| 20260831180525 | 82 | 0 | 0.0 | 0.0 | 0.00 | 0.12 | 0.00 | 76 | 1019.5 |
| 20260831180330 | 82 | 114 | 0.0 | 0.0 | 0.00 | 0.12 | 0.00 | 78 | 1019.1 |
| 20260831180045 | 82 | 0 | 0.0 | 0.0 | 0.00 | 0.12 | 0.00 | 75 | 1019.5 |
| 20260831175849 | 83 | 114 | 0.0 | 0.0 | 0.00 | 0.12 | 0.00 | 75 | 1019.1 |
| 20260831175528 | 82 | 0 | 0.0 | 0.0 | 0.00 | 0.12 | 0.00 | 75 | 1019.6 |
| 20260831175343 | 82 | 114 | 0.0 | 0.0 | 0.00 | 0.12 | 0.00 | 75 | 1019.2 |
| 20260831175029 | 82 | 0 | 0.0 | 0.0 | 0.00 | 0.12 | 0.00 | 74 | 1019.7 |
| 20260831174837 | 82 | 114 | 0.0 | 0.0 | 0.00 | 0.12 | 0.00 | 74 | 1019.3 |
| 20260831174546 | 82 | 0 | 0.0 | 0.0 | 0.00 | 0.12 | 0.00 | 77 | 1019.7 |
| 20260831174350 | 83 | 114 | 0.0 | 0.0 | 0.00 | 0.12 | 0.00 | 77 | 1019.3 |
| 20260831174028 | 82 | 0 | 0.0 | 0.0 | 0.00 | 0.12 | 0.00 | 74 | 1019.7 |
| 20260831173848 | 83 | 114 | 0.0 | 0.0 | 0.00 | 0.12 | 0.00 | 76 | 1019.3 |
| 20260831173525 | 82 | 0 | 0.0 | 0.0 | 0.00 | 0.12 | 0.00 | 75 | 1019.8 |
| 20260831173341 | 83 | 114 | 0.0 | 0.0 | 0.00 | 0.12 | 0.00 | 75 | 1019.4 |
| 20260831173044 | 83 | 0 | 0.0 | 0.0 | 0.00 | 0.12 | 0.00 | 75 | 1019.7 |
| 20260831172853 | 83 | 114 | 0.0 | 0.0 | 0.00 | 0.12 | 0.00 | 74 | 1019.3 |
| 20260831172524 | 83 | 0 | 0.0 | 0.0 | 0.00 | 0.12 | 0.00 | 73 | 1019.7 |
| 20260831172349 | 83 | 114 | 0.0 | 0.0 | 0.00 | 0.12 | 0.00 | 74 | 1019.4 |
| 20260831172025 | 82 | 0 | 0.0 | 0.0 | 0.00 | 0.12 | 0.00 | 73 | 1019.8 |
| 20260831171843 | 83 | 114 | 0.0 | 0.0 | 0.00 | 0.12 | 0.00 | 75 | 1019.4 |
| 20260831171543 | 82 | 0 | 0.0 | 0.0 | 0.00 | 0.12 | 0.00 | 77 | 1019.8 |
| 20260831171337 | 83 | 114 | 0.0 | 0.0 | 0.00 | 0.12 | 0.00 | 75 | 1019.6 |
| 20260831171028 | 82 | 0 | 0.0 | 2.0 | 0.00 | 0.12 | 0.00 | 75 | 1019.9 |
| 20260831170835 | 83 | 114 | 0.0 | 0.0 | 0.00 | 0.12 | 0.00 | 75 | 1019.6 |
| 20260831170530 | 82 | 0 | 0.0 | 2.0 | 0.00 | 0.12 | 0.00 | 74 | 1019.8 |
| 20260831170351 | 83 | 114 | 0.0 | 2.0 | 0.00 | 0.12 | 0.00 | 75 | 1019.5 |
| 20260831170048 | 82 | 0 | 0.0 | 2.0 | 0.00 | 0.12 | 0.00 | 74 | 1019.9 |
| 20260831165907 | 83 | 113 | 1.0 | 2.0 | 0.00 | 0.12 | 0.00 | 78 | 1019.5 |
| 20260831165526 | 82 | 0 | 0.0 | 1.0 | 0.00 | 0.12 | 0.00 | 76 | 1019.8 |
| 20260831165341 | 82 | 175 | 0.0 | 0.0 | 0.00 | 0.12 | 0.00 | 75 | 1019.5 |
| 20260831165029 | 82 | 0 | 0.0 | 1.0 | 0.00 | 0.12 | 0.00 | 76 | 1019.9 |
| 20260831164858 | 82 | 175 | 0.0 | 1.0 | 0.00 | 0.12 | 0.00 | 76 | 1019.6 |
| 20260831164554 | 82 | 0 | 0.0 | 2.0 | 0.00 | 0.12 | 0.00 | 75 | 1020.1 |
| 20260831164355 | 82 | 139 | 0.0 | 2.0 | 0.00 | 0.12 | 0.00 | 75 | 1019.7 |
| 20260831164027 | 82 | 0 | 0.0 | 2.0 | 0.00 | 0.12 | 0.00 | 75 | 1020.1 |
| 20260831163850 | 83 | 69 | 0.0 | 2.0 | 0.00 | 0.12 | 0.00 | 75 | 1019.7 |
| 20260831163528 | 82 | 0 | 0.0 | 2.0 | 0.00 | 0.12 | 0.00 | 76 | 1020.1 |
| 20260831163347 | 83 | 28 | 0.0 | 2.0 | 0.00 | 0.12 | 0.00 | 81 | 1019.7 |
| 20260831163043 | 82 | 0 | 0.0 | 1.0 | 0.00 | 0.12 | 0.00 | 76 | 1020.2 |
| 20260831162841 | 82 | 104 | 0.0 | 1.0 | 0.00 | 0.12 | 0.00 | 78 | 1019.8 |
| 20260831162529 | 82 | 0 | 0.0 | 1.0 | 0.00 | 0.12 | 0.00 | 76 | 1020.3 |
| 20260831162342 | 82 | 104 | 0.0 | 1.0 | 0.00 | 0.12 | 0.00 | 78 | 1019.9 |
| 20260831162028 | 81 | 0 | 0.0 | 4.0 | 0.00 | 0.12 | 0.00 | 77 | 1020.3 |
| 20260831161839 | 82 | 104 | 0.0 | 3.0 | 0.00 | 0.12 | 0.00 | 77 | 1019.9 |
| 20260831161545 | 81 | 0 | 0.0 | 4.0 | 0.00 | 0.12 | 0.00 | 79 | 1020.4 |
| 20260831161338 | 81 | 96 | 0.0 | 3.0 | 0.00 | 0.12 | 0.00 | 78 | 1020.0 |
| 20260831161030 | 80 | 0 | 0.0 | 0.0 | 0.00 | 0.12 | 0.00 | 81 | 1020.4 |
| 20260831160833 | 81 | 95 | 0.0 | 0.0 | 0.00 | 0.12 | 0.00 | 79 | 1020.1 |
| 20260831160524 | 80 | 0 | 0.0 | 0.0 | 0.00 | 0.12 | 0.00 | 82 | 1020.5 |
| 20260831160411 | 81 | 95 | 0.0 | 0.0 | 0.00 | 0.12 | 0.00 | 81 | 1020.1 |
| 20260831160049 | 80 | 0 | 0.0 | 1.0 | 0.00 | 0.12 | 0.00 | 82 | 1020.6 |
| 20260831155905 | 80 | 96 | 0.0 | 1.0 | 0.00 | 0.12 | 0.00 | 82 | 1020.1 |
| 20260831155530 | 80 | 0 | 0.0 | 2.0 | 0.00 | 0.12 | 0.00 | 80 | 1020.4 |
| 20260831155340 | 80 | 95 | 0.0 | 2.0 | 0.00 | 0.12 | 0.00 | 82 | 1020.0 |
| 20260831155028 | 80 | 0 | 0.0 | 2.0 | 0.00 | 0.12 | 0.00 | 81 | 1020.4 |
| 20260831154834 | 80 | 100 | 0.0 | 2.0 | 0.00 | 0.12 | 0.00 | 81 | 1019.8 |
| 20260831154659 | 80 | 0 | 0.0 | 1.0 | 0.00 | 0.12 | 0.00 | 80 | 1020.3 |
| 20260831154331 | 80 | 77 | 0.0 | 0.0 | 0.00 | 0.12 | 0.00 | 81 | 1019.8 |
| 20260831154028 | 80 | 0 | 0.0 | 0.0 | 0.00 | 0.12 | 0.00 | 81 | 1020.2 |
| 20260831153830 | 81 | 75 | 0.0 | 0.0 | 0.00 | 0.12 | 0.00 | 83 | 1019.7 |
| 20260831153528 | 80 | 0 | 0.0 | 0.0 | 0.00 | 0.12 | 0.00 | 80 | 1020.1 |
| 20260831153348 | 81 | 76 | 0.0 | 0.0 | 0.00 | 0.12 | 0.00 | 81 | 1019.7 |
| 20260831153053 | 80 | 0 | 0.0 | 2.0 | 0.00 | 0.12 | 0.00 | 80 | 1020.1 |
| 20260831152902 | 81 | 75 | 0.0 | 0.0 | 0.00 | 0.12 | 0.00 | 80 | 1019.7 |
| 20260831152524 | 80 | 0 | 0.0 | 2.0 | 0.00 | 0.12 | 0.00 | 81 | 1020.1 |
| 20260831152340 | 81 | 60 | 0.0 | 2.0 | 0.00 | 0.12 | 0.00 | 80 | 1019.7 |
| 20260831152029 | 81 | 0 | 0.0 | 2.0 | 0.00 | 0.12 | 0.00 | 79 | 1020.1 |
| 20260831151836 | 81 | 128 | 0.0 | 0.0 | 0.00 | 0.12 | 0.00 | 80 | 1019.7 |
| 20260831151548 | 80 | 0 | 0.0 | 2.0 | 0.00 | 0.12 | 0.00 | 81 | 1020.1 |
| 20260831151338 | 81 | 131 | 0.0 | 2.0 | 0.00 | 0.12 | 0.00 | 81 | 1019.7 |
| 20260831151025 | 80 | 0 | 0.0 | 2.0 | 0.00 | 0.12 | 0.00 | 82 | 1020.1 |
| 20260831150835 | 81 | 149 | 0.0 | 2.0 | 0.00 | 0.12 | 0.00 | 82 | 1019.6 |
| 20260831150525 | 80 | 0 | 0.0 | 2.0 | 0.00 | 0.12 | 0.00 | 82 | 1020.1 |
| 20260831150332 | 80 | 164 | 0.0 | 2.0 | 0.00 | 0.12 | 0.00 | 84 | 1019.8 |
| 20260831150047 | 79 | 0 | 0.0 | 3.0 | 0.00 | 0.12 | 0.00 | 86 | 1020.2 |
| 20260831145849 | 79 | 163 | 0.0 | 3.0 | 0.00 | 0.12 | 0.00 | 85 | 1019.8 |
| 20260831145525 | 78 | 0 | 0.0 | 6.0 | 0.00 | 0.12 | 0.00 | 85 | 1020.3 |
| 20260831145407 | 79 | 132 | 0.0 | 5.0 | 0.00 | 0.12 | 0.00 | 85 | 1019.8 |
| 20260831145029 | 78 | 0 | 0.0 | 6.0 | 0.00 | 0.12 | 0.00 | 85 | 1020.2 |
| 20260831144844 | 78 | 73 | 1.0 | 5.0 | 0.00 | 0.12 | 0.00 | 87 | 1019.8 |
| 20260831144545 | 77 | 0 | 0.0 | 2.0 | 0.00 | 0.12 | 0.00 | 87 | 1020.3 |
| 20260831144342 | 77 | 104 | 0.0 | 2.0 | 0.00 | 0.12 | 0.00 | 91 | 1019.9 |
| 20260831144024 | 76 | 0 | 0.0 | 0.0 | 0.00 | 0.12 | 0.00 | 89 | 1020.3 |
| 20260831143838 | 76 | 102 | 0.0 | 0.0 | 0.00 | 0.12 | 0.00 | 92 | 1019.9 |
| 20260831143526 | 76 | 0 | 0.0 | 0.0 | 0.00 | 0.12 | 0.00 | 92 | 1020.4 |
| 20260831143337 | 76 | 108 | 0.0 | 0.0 | 0.00 | 0.12 | 0.00 | 92 | 1020.0 |
| 20260831143109 | 75 | 0 | 0.0 | 4.0 | 0.00 | 0.12 | 0.00 | 92 | 1020.4 |
| 20260831142833 | 76 | 108 | 0.0 | 3.0 | 0.00 | 0.12 | 0.00 | 92 | 1019.9 |
| 20260831142529 | 75 | 0 | 0.0 | 4.0 | 0.00 | 0.12 | 0.00 | 93 | 1020.3 |
| 20260831142351 | 76 | 191 | 0.0 | 3.0 | 0.00 | 0.12 | 0.00 | 94 | 1019.8 |
| 20260831142029 | 75 | 0 | 0.0 | 2.0 | 0.00 | 0.12 | 0.00 | 94 | 1020.2 |
| 20260831141844 | 75 | 46 | 0.0 | 1.0 | 0.00 | 0.12 | 0.00 | 95 | 1019.8 |
| 20260831141602 | 75 | 0 | 0.0 | 0.0 | 0.00 | 0.12 | 0.00 | 95 | 1020.2 |
| 20260831141337 | 75 | 111 | 0.0 | 0.0 | 0.00 | 0.12 | 0.00 | 96 | 1019.7 |
| 20260831141026 | 74 | 0 | 0.0 | 0.0 | 0.00 | 0.12 | 0.00 | 96 | 1020.1 |
| 20260831140828 | 75 | 103 | 0.0 | 0.0 | 0.00 | 0.12 | 0.00 | 96 | 1019.7 |
| 20260831140527 | 74 | 0 | 0.0 | 0.0 | 0.00 | 0.12 | 0.00 | 96 | 1020.1 |
| 20260831140349 | 75 | 103 | 0.0 | 0.0 | 0.00 | 0.12 | 0.00 | 96 | 1019.6 |
| 20260831140047 | 74 | 0 | 0.0 | 0.0 | 0.00 | 0.12 | 0.00 | 96 | 1020.0 |
| 20260831135844 | 74 | 103 | 0.0 | 0.0 | 0.00 | 0.12 | 0.00 | 97 | 1019.7 |
| 20260831135531 | 74 | 0 | 0.0 | 0.0 | 0.00 | 0.12 | 0.00 | 96 | 1020.1 |
| 20260831135339 | 74 | 103 | 0.0 | 0.0 | 0.00 | 0.12 | 0.00 | 97 | 1019.7 |
| 20260831135031 | 73 | 0 | 0.0 | 0.0 | 0.00 | 0.12 | 0.00 | 96 | 1020.2 |
| 20260831134855 | 74 | 103 | 0.0 | 0.0 | 0.00 | 0.12 | 0.00 | 97 | 1019.8 |
| 20260831134545 | 73 | 0 | 0.0 | 0.0 | 0.00 | 0.12 | 0.00 | 97 | 1020.2 |
| 20260831134454 | 74 | 206 | 0.0 | 0.0 | 0.00 | 0.12 | 0.00 | 97 | 1019.8 |
| 20260831134025 | 73 | 0 | 0.0 | 0.0 | 0.00 | 0.12 | 0.00 | 97 | 1020.2 |
| 20260831133528 | 73 | 0 | 0.0 | 0.0 | 0.00 | 0.12 | 0.00 | 97 | 1020.4 |
| 20260831133044 | 72 | 0 | 0.0 | 0.0 | 0.00 | 0.12 | 0.00 | 97 | 1020.3 |
| 20260831132852 | 73 | 210 | 0.0 | 0.0 | 0.00 | 0.12 | 0.00 | 97 | 1019.8 |
| 20260831132525 | 72 | 0 | 0.0 | 0.0 | 0.00 | 0.12 | 0.00 | 97 | 1020.3 |
| 20260831132328 | 73 | 211 | 0.0 | 0.0 | 0.00 | 0.12 | 0.00 | 97 | 1019.8 |
| 20260831132025 | 72 | 0 | 0.0 | 0.0 | 0.00 | 0.12 | 0.00 | 97 | 1020.3 |
| 20260831131909 | 73 | 211 | 0.0 | 0.0 | 0.00 | 0.12 | 0.00 | 97 | 1019.9 |
| 20260831131543 | 72 | 0 | 0.0 | 0.0 | 0.00 | 0.12 | 0.00 | 97 | 1020.4 |
| 20260831131347 | 72 | 211 | 0.0 | 0.0 | 0.00 | 0.12 | 0.00 | 97 | 1019.9 |
| 20260831131025 | 72 | 0 | 0.0 | 0.0 | 0.00 | 0.12 | 0.00 | 97 | 1020.5 |
| 20260831130841 | 72 | 211 | 0.0 | 0.0 | 0.00 | 0.12 | 0.00 | 97 | 1019.9 |
| 20260831130523 | 72 | 0 | 0.0 | 0.0 | 0.00 | 0.12 | 0.00 | 97 | 1020.5 |
| 20260831130400 | 72 | 211 | 0.0 | 0.0 | 0.00 | 0.12 | 0.00 | 97 | 1020.0 |
| 20260831130054 | 72 | 0 | 0.0 | 0.0 | 0.00 | 0.12 | 0.00 | 97 | 1020.5 |
| 20260831125854 | 72 | 211 | 0.0 | 0.0 | 0.00 | 0.12 | 0.00 | 97 | 1019.9 |
| 20260831125525 | 71 | 0 | 0.0 | 0.0 | 0.00 | 0.12 | 0.00 | 97 | 1020.4 |
| 20260831125403 | 72 | 222 | 0.0 | 0.0 | 0.00 | 0.12 | 0.00 | 98 | 1019.9 |
| 20260831125026 | 71 | 0 | 0.0 | 0.0 | 0.00 | 0.12 | 0.00 | 97 | 1020.3 |
| 20260831124835 | 72 | 222 | 0.0 | 0.0 | 0.00 | 0.12 | 0.00 | 97 | 1019.9 |
| 20260831124543 | 71 | 0 | 0.0 | 0.0 | 0.00 | 0.12 | 0.00 | 97 | 1020.4 |
| 20260831124335 | 71 | 222 | 0.0 | 0.0 | 0.00 | 0.12 | 0.00 | 97 | 1019.9 |
| 20260831124029 | 71 | 0 | 0.0 | 0.0 | 0.00 | 0.12 | 0.00 | 97 | 1020.5 |
| 20260831123905 | 71 | 222 | 0.0 | 0.0 | 0.00 | 0.12 | 0.00 | 97 | 1019.9 |
| 20260831123528 | 71 | 0 | 0.0 | 0.0 | 0.00 | 0.12 | 0.00 | 97 | 1020.3 |
| 20260831123343 | 71 | 222 | 0.0 | 0.0 | 0.00 | 0.12 | 0.00 | 97 | 1019.8 |
| 20260831123044 | 70 | 0 | 0.0 | 0.0 | 0.00 | 0.12 | 0.00 | 97 | 1020.3 |
| 20260831122855 | 71 | 222 | 0.0 | 0.0 | 0.00 | 0.12 | 0.00 | 97 | 1019.8 |
| 20260831122527 | 70 | 0 | 0.0 | 0.0 | 0.00 | 0.12 | 0.00 | 97 | 1020.3 |
| 20260831122348 | 71 | 222 | 0.0 | 0.0 | 0.00 | 0.12 | 0.00 | 97 | 1019.8 |
| 20260831122025 | 70 | 0 | 0.0 | 0.0 | 0.00 | 0.12 | 0.00 | 97 | 1020.3 |
| 20260831121903 | 71 | 222 | 0.0 | 0.0 | 0.00 | 0.12 | 0.00 | 97 | 1019.7 |
| 20260831121549 | 70 | 0 | 0.0 | 0.0 | 0.00 | 0.12 | 0.00 | 97 | 1020.3 |
| 20260831121336 | 70 | 222 | 0.0 | 0.0 | 0.00 | 0.12 | 0.00 | 97 | 1019.7 |
| 20260831121027 | 70 | 0 | 0.0 | 0.0 | 0.00 | 0.12 | 0.00 | 97 | 1020.1 |
| 20260831120851 | 70 | 222 | 0.0 | 0.0 | 0.00 | 0.12 | 0.00 | 97 | 1019.6 |
| 20260831120527 | 70 | 0 | 0.0 | 0.0 | 0.00 | 0.12 | 0.00 | 97 | 1020.0 |
| 20260831120346 | 70 | 0.0 | 0.0 | 0.00 | 0.12 | 0.00 | 97 | 1019.6 | |
| 20260831120051 | 69 | 0 | 0.0 | 0.0 | 0.00 | 0.12 | 0.00 | 97 | 1020.1 |
| 20260831115834 | 70 | 0.0 | 0.0 | 0.00 | 0.12 | 0.00 | 97 | 1019.5 | |
| 20260831115525 | 69 | 0 | 0.0 | 0.0 | 0.00 | 0.12 | 0.00 | 97 | 1020.0 |
| 20260831115333 | 70 | 0.0 | 0.0 | 0.00 | 0.12 | 0.00 | 97 | 1019.5 | |
| 20260831115028 | 69 | 0 | 0.0 | 0.0 | 0.00 | 0.12 | 0.00 | 97 | 1020.0 |
| 20260831114855 | 69 | 0.0 | 0.0 | 0.00 | 0.12 | 0.00 | 97 | 1019.6 | |
| 20260831114546 | 69 | 0 | 0.0 | 0.0 | 0.00 | 0.12 | 0.00 | 97 | 1020.1 |
| 20260831114335 | 69 | 0.0 | 0.0 | 0.00 | 0.12 | 0.00 | 97 | 1019.6 | |
| 20260831114025 | 69 | 0 | 0.0 | 0.0 | 0.00 | 0.12 | 0.00 | 96 | 1020.1 |
| 20260831113834 | 69 | 0.0 | 0.0 | 0.00 | 0.12 | 0.00 | 97 | 1019.7 | |
| 20260831113528 | 69 | 0 | 0.0 | 0.0 | 0.00 | 0.12 | 0.00 | 97 | 1020.1 |
| 20260831113336 | 69 | 0.0 | 0.0 | 0.00 | 0.12 | 0.00 | 97 | 1019.6 | |
| 20260831113044 | 69 | 0.0 | 0.0 | 0.00 | 0.12 | 0.00 | 97 | 1019.8 | |
| 20260831112835 | 69 | 0.0 | 0.0 | 0.00 | 0.12 | 0.00 | 97 | 1019.4 | |
| 20260831112526 | 68 | 0.0 | 0.0 | 0.00 | 0.12 | 0.00 | 97 | 1019.8 | |
| 20260831112333 | 69 | 0.0 | 0.0 | 0.00 | 0.12 | 0.00 | 97 | 1019.4 | |
| 20260831112025 | 68 | 0.0 | 0.0 | 0.00 | 0.12 | 0.00 | 97 | 1019.8 | |
| 20260831111835 | 69 | 0.0 | 0.0 | 0.00 | 0.12 | 0.00 | 97 | 1019.3 | |
| 20260831111550 | 68 | 0.0 | 0.0 | 0.00 | 0.12 | 0.00 | 96 | 1019.6 | |
| 20260831111336 | 69 | 0.0 | 0.0 | 0.00 | 0.12 | 0.00 | 97 | 1019.2 | |
| 20260831111029 | 68 | 0.0 | 0.0 | 0.00 | 0.12 | 0.00 | 96 | 1019.5 | |
| 20260831110835 | 68 | 0.0 | 0.0 | 0.00 | 0.12 | 0.00 | 97 | 1019.1 | |
| 20260831110529 | 68 | 0.0 | 0.0 | 0.00 | 0.12 | 0.00 | 96 | 1019.4 | |
| 20260831110356 | 68 | 0.0 | 0.0 | 0.00 | 0.12 | 0.00 | 97 | 1019.1 | |
| 20260831110045 | 68 | 0.0 | 0.0 | 0.00 | 0.12 | 0.00 | 96 | 1019.4 | |
| 20260831105839 | 68 | 0.0 | 0.0 | 0.00 | 0.12 | 0.00 | 97 | 1019.2 | |
| 20260831105525 | 68 | 0.0 | 0.0 | 0.00 | 0.12 | 0.00 | 96 | 1019.6 | |
| 20260831105400 | 68 | 0.0 | 0.0 | 0.00 | 0.12 | 0.00 | 97 | 1019.1 | |
| 20260831105025 | 68 | 0.0 | 0.0 | 0.00 | 0.12 | 0.00 | 96 | 1019.4 | |
| 20260831104834 | 68 | 0.0 | 0.0 | 0.00 | 0.12 | 0.00 | 97 | 1019.0 | |
| 20260831104544 | 68 | 0.0 | 0.0 | 0.00 | 0.12 | 0.00 | 96 | 1019.3 | |
| 20260831104413 | 68 | 0.0 | 0.0 | 0.00 | 0.12 | 0.00 | 97 | 1018.9 | |
| 20260831104026 | 68 | 0.0 | 0.0 | 0.00 | 0.12 | 0.00 | 96 | 1019.2 | |
| 20260831103848 | 68 | 0.0 | 0.0 | 0.00 | 0.12 | 0.00 | 97 | 1018.9 | |
| 20260831103524 | 68 | 0.0 | 0.0 | 0.00 | 0.12 | 0.00 | 96 | 1019.1 | |
| 20260831103343 | 68 | 0.0 | 0.0 | 0.00 | 0.12 | 0.00 | 97 | 1018.8 | |
| 20260831103045 | 68 | 0.0 | 0.0 | 0.00 | 0.12 | 0.00 | 96 | 1018.9 | |
| 20260831102856 | 68 | 0.0 | 0.0 | 0.00 | 0.12 | 0.00 | 97 | 1018.7 | |
| 20260831102524 | 68 | 0.0 | 0.0 | 0.00 | 0.12 | 0.00 | 96 | 1019.0 | |
| 20260831102337 | 68 | 0.0 | 0.0 | 0.00 | 0.12 | 0.00 | 97 | 1018.8 | |
| 20260831102028 | 68 | 0.0 | 0.0 | 0.00 | 0.12 | 0.00 | 96 | 1018.9 | |
| 20260831101837 | 68 | 0.0 | 0.0 | 0.00 | 0.12 | 0.00 | 97 | 1018.7 | |
| 20260831101612 | 68 | 0.0 | 0.0 | 0.00 | 0.12 | 0.00 | 96 | 1019.0 | |
| 20260831101436 | 68 | 0.0 | 0.0 | 0.00 | 0.12 | 0.00 | 97 | 1018.8 | |
| 20260831101030 | 68 | 0.0 | 0.0 | 0.00 | 0.12 | 0.00 | 96 | 1019.0 | |
| 20260831100833 | 68 | 0.0 | 0.0 | 0.00 | 0.12 | 0.00 | 97 | 1018.8 | |
| 20260831100526 | 68 | 0.0 | 0.0 | 0.00 | 0.12 | 0.00 | 96 | 1018.9 | |
| 20260831100334 | 68 | 0.0 | 0.0 | 0.00 | 0.12 | 0.00 | 97 | 1018.7 | |
| 20260831100109 | 68 | 0.0 | 0.0 | 0.00 | 0.12 | 0.00 | 96 | 1018.8 | |
| 20260831095828 | 68 | 0.0 | 0.0 | 0.00 | 0.12 | 0.00 | 97 | 1018.6 | |
| 20260831095525 | 68 | 0.0 | 0.0 | 0.00 | 0.12 | 0.00 | 96 | 1018.8 | |
| 20260831095409 | 68 | 0.0 | 0.0 | 0.00 | 0.12 | 0.00 | 97 | 1018.6 | |
| 20260831095028 | 68 | 0.0 | 0.0 | 0.00 | 0.12 | 0.00 | 96 | 1018.9 | |
| 20260831094846 | 68 | 0.0 | 0.0 | 0.00 | 0.12 | 0.00 | 97 | 1018.6 | |
| 20260831094544 | 68 | 0.0 | 0.0 | 0.00 | 0.12 | 0.00 | 96 | 1018.8 | |
| 20260831094341 | 68 | 0.0 | 0.0 | 0.00 | 0.12 | 0.00 | 97 | 1018.6 | |
| 20260831094027 | 68 | 0.0 | 0.0 | 0.00 | 0.12 | 0.00 | 96 | 1018.8 | |
| 20260831093901 | 68 | 0.0 | 0.0 | 0.00 | 0.12 | 0.00 | 97 | 1018.6 | |
| 20260831093525 | 68 | 0.0 | 0.0 | 0.00 | 0.12 | 0.00 | 96 | 1018.8 | |
| 20260831093334 | 68 | 0.0 | 0.0 | 0.00 | 0.12 | 0.00 | 97 | 1018.5 | |
| 20260831093054 | 68 | 0.0 | 0.0 | 0.00 | 0.12 | 0.00 | 96 | 1018.8 | |
| 20260831092837 | 68 | 0.0 | 0.0 | 0.00 | 0.12 | 0.00 | 97 | 1018.5 | |
| 20260831092524 | 68 | 0.0 | 0.0 | 0.00 | 0.12 | 0.00 | 96 | 1018.8 | |
| 20260831092352 | 68 | 0.0 | 0.0 | 0.00 | 0.12 | 0.00 | 97 | 1018.4 | |
| 20260831092025 | 68 | 0.0 | 0.0 | 0.00 | 0.12 | 0.00 | 96 | 1018.7 | |
| 20260831091848 | 68 | 0.0 | 0.0 | 0.00 | 0.12 | 0.00 | 96 | 1018.4 | |
| 20260831091549 | 68 | 0.0 | 0.0 | 0.00 | 0.12 | 0.00 | 96 | 1018.7 | |
| 20260831091403 | 68 | 0.0 | 0.0 | 0.00 | 0.12 | 0.00 | 96 | 1018.4 | |
| 20260831091031 | 68 | 0.0 | 0.0 | 0.00 | 0.12 | 0.00 | 96 | 1018.7 | |
| 20260831090838 | 68 | 0.0 | 0.0 | 0.00 | 0.12 | 0.00 | 96 | 1018.4 | |
| 20260831090527 | 68 | 0.0 | 0.0 | 0.00 | 0.12 | 0.00 | 96 | 1018.8 | |
| 20260831090352 | 68 | 0.0 | 0.0 | 0.00 | 0.12 | 0.00 | 96 | 1018.5 | |
| 20260831090103 | 68 | 0.0 | 0.0 | 0.00 | 0.12 | 0.00 | 96 | 1018.9 | |
| 20260831085843 | 68 | 0.0 | 0.0 | 0.00 | 0.12 | 0.00 | 96 | 1018.6 | |
| 20260831085525 | 68 | 0.0 | 0.0 | 0.00 | 0.12 | 0.00 | 96 | 1018.9 | |
| 20260831085343 | 68 | 0.0 | 0.0 | 0.00 | 0.12 | 0.00 | 96 | 1018.5 | |
| 20260831085027 | 68 | 0.0 | 0.0 | 0.00 | 0.12 | 0.00 | 96 | 1018.8 | |
| 20260831084845 | 68 | 0.0 | 0.0 | 0.00 | 0.12 | 0.00 | 96 | 1018.5 | |
| 20260831084544 | 68 | 0.0 | 0.0 | 0.00 | 0.12 | 0.00 | 96 | 1018.9 | |
| 20260831084344 | 69 | 0.0 | 0.0 | 0.00 | 0.12 | 0.00 | 96 | 1018.5 | |
| 20260831084031 | 68 | 0.0 | 0.0 | 0.00 | 0.12 | 0.00 | 96 | 1018.9 | |
| 20260831083903 | 68 | 0.0 | 0.0 | 0.00 | 0.12 | 0.00 | 96 | 1018.5 | |
| 20260831083525 | 68 | 0.0 | 0.0 | 0.00 | 0.12 | 0.00 | 96 | 1018.9 | |
| 20260831083342 | 69 | 0.0 | 0.0 | 0.00 | 0.12 | 0.00 | 96 | 1018.4 | |
| 20260831083052 | 68 | 0.0 | 0.0 | 0.00 | 0.12 | 0.00 | 96 | 1018.8 | |
| 20260831082841 | 68 | 0.0 | 0.0 | 0.00 | 0.12 | 0.00 | 96 | 1018.3 | |
| 20260831082524 | 68 | 0.0 | 0.0 | 0.00 | 0.12 | 0.00 | 96 | 1018.8 | |
| 20260831082334 | 68 | 0.0 | 0.0 | 0.00 | 0.12 | 0.00 | 96 | 1018.3 | |
| 20260831082025 | 68 | 0.0 | 0.0 | 0.00 | 0.12 | 0.00 | 96 | 1018.7 | |
| 20260831081853 | 68 | 0.0 | 0.0 | 0.00 | 0.12 | 0.00 | 96 | 1018.2 | |
| 20260831081551 | 68 | 0.0 | 0.0 | 0.00 | 0.12 | 0.00 | 96 | 1018.7 | |
| 20260831081332 | 68 | 0.0 | 0.0 | 0.00 | 0.12 | 0.00 | 96 | 1018.2 | |
| 20260831081024 | 68 | 0.0 | 0.0 | 0.00 | 0.12 | 0.00 | 96 | 1018.7 | |
| 20260831080830 | 68 | 0.0 | 0.0 | 0.00 | 0.12 | 0.00 | 96 | 1018.3 | |
| 20260831080524 | 68 | 0.0 | 0.0 | 0.00 | 0.12 | 0.00 | 96 | 1018.9 | |
| 20260831080331 | 68 | 0.0 | 0.0 | 0.00 | 0.12 | 0.00 | 96 | 1018.4 | |
| 20260831080047 | 68 | 0.0 | 0.0 | 0.00 | 0.12 | 0.00 | 96 | 1018.9 | |
| 20260831075828 | 69 | 0.0 | 0.0 | 0.00 | 0.12 | 0.00 | 96 | 1018.4 | |
| 20260831075524 | 68 | 0.0 | 0.0 | 0.00 | 0.12 | 0.00 | 96 | 1019.0 | |
| 20260831075349 | 69 | 0.0 | 0.0 | 0.00 | 0.12 | 0.00 | 96 | 1018.4 | |
| 20260831075024 | 68 | 0.0 | 0.0 | 0.00 | 0.12 | 0.00 | 96 | 1019.0 | |
| 20260831074827 | 68 | 0.0 | 0.0 | 0.00 | 0.12 | 0.00 | 96 | 1018.5 | |
| 20260831074544 | 68 | 0.0 | 0.0 | 0.00 | 0.12 | 0.00 | 96 | 1019.0 | |
| 20260831074347 | 68 | 0.0 | 0.0 | 0.00 | 0.12 | 0.00 | 96 | 1018.5 | |
| 20260831074027 | 68 | 0.0 | 0.0 | 0.00 | 0.12 | 0.00 | 96 | 1019.0 | |
| 20260831073846 | 68 | 0.0 | 0.0 | 0.00 | 0.12 | 0.00 | 96 | 1018.4 | |
| 20260831073531 | 68 | 0.0 | 0.0 | 0.00 | 0.12 | 0.00 | 96 | 1018.9 | |
| 20260831073347 | 68 | 0.0 | 0.0 | 0.00 | 0.12 | 0.00 | 96 | 1018.4 | |
| 20260831073046 | 68 | 0.0 | 0.0 | 0.00 | 0.12 | 0.00 | 96 | 1018.9 | |
| 20260831072841 | 68 | 0.0 | 0.0 | 0.00 | 0.12 | 0.00 | 96 | 1018.3 | |
| 20260831072526 | 68 | 0.0 | 0.0 | 0.00 | 0.12 | 0.00 | 96 | 1018.9 | |
| 20260831072341 | 68 | 0.0 | 0.0 | 0.00 | 0.12 | 0.00 | 96 | 1018.3 | |
| 20260831072028 | 68 | 0.0 | 0.0 | 0.00 | 0.12 | 0.00 | 96 | 1018.9 | |
| 20260831071833 | 68 | 0.0 | 0.0 | 0.00 | 0.12 | 0.00 | 96 | 1018.3 | |
| 20260831071545 | 68 | 0.0 | 0.0 | 0.00 | 0.12 | 0.00 | 96 | 1018.9 | |
| 20260831071415 | 68 | 0.0 | 0.0 | 0.00 | 0.12 | 0.00 | 96 | 1018.3 | |
| 20260831071027 | 68 | 0.0 | 0.0 | 0.00 | 0.12 | 0.00 | 96 | 1018.9 | |
| 20260831070847 | 68 | 0.0 | 0.0 | 0.00 | 0.12 | 0.00 | 96 | 1018.3 | |
| 20260831070524 | 68 | 0.0 | 0.0 | 0.00 | 0.12 | 0.00 | 95 | 1018.8 | |
| 20260831070404 | 68 | 0.0 | 0.0 | 0.00 | 0.12 | 0.00 | 96 | 1018.3 | |
| 20260831070046 | 68 | 0.0 | 0.0 | 0.00 | 0.12 | 0.00 | 95 | 1018.9 | |
| 20260831065836 | 68 | 0.0 | 0.0 | 0.00 | 0.12 | 0.00 | 96 | 1018.3 | |
| 20260831065525 | 68 | 0.0 | 0.0 | 0.00 | 0.12 | 0.00 | 95 | 1018.9 | |
| 20260831065352 | 68 | 0.0 | 0.0 | 0.00 | 0.12 | 0.00 | 96 | 1018.3 | |
| 20260831065027 | 68 | 0.0 | 0.0 | 0.00 | 0.12 | 0.00 | 95 | 1018.8 | |
| 20260831064847 | 68 | 0.0 | 0.0 | 0.00 | 0.12 | 0.00 | 96 | 1018.3 | |
| 20260831064556 | 68 | 0.0 | 0.0 | 0.00 | 0.12 | 0.00 | 95 | 1018.9 | |
| 20260831064401 | 68 | 0.0 | 0.0 | 0.00 | 0.12 | 0.00 | 96 | 1018.3 | |
| 20260831064030 | 68 | 0.0 | 0.0 | 0.00 | 0.12 | 0.00 | 95 | 1018.9 | |
| 20260831063842 | 68 | 0.0 | 0.0 | 0.00 | 0.12 | 0.00 | 96 | 1018.4 | |
| 20260831063526 | 68 | 0.0 | 0.0 | 0.00 | 0.12 | 0.00 | 95 | 1019.0 | |
| 20260831063334 | 68 | 0.0 | 0.0 | 0.00 | 0.12 | 0.00 | 96 | 1018.4 | |
| 20260831063044 | 68 | 0.0 | 0.0 | 0.00 | 0.12 | 0.00 | 95 | 1018.9 | |
| 20260831062849 | 69 | 0.0 | 0.0 | 0.00 | 0.12 | 0.00 | 96 | 1018.4 | |
| 20260831062531 | 68 | 0.0 | 0.0 | 0.00 | 0.12 | 0.00 | 95 | 1019.0 | |
| 20260831062342 | 69 | 0.0 | 0.0 | 0.00 | 0.12 | 0.00 | 96 | 1018.5 | |
| 20260831062027 | 68 | 0.0 | 0.0 | 0.00 | 0.12 | 0.00 | 95 | 1019.0 | |
| 20260831061858 | 69 | 0.0 | 0.0 | 0.00 | 0.12 | 0.00 | 96 | 1018.6 | |
| 20260831061557 | 68 | 0.0 | 0.0 | 0.00 | 0.12 | 0.00 | 95 | 1019.1 | |
| 20260831061350 | 69 | 0.0 | 0.0 | 0.00 | 0.12 | 0.00 | 96 | 1018.5 | |
| 20260831061028 | 68 | 0.0 | 0.0 | 0.00 | 0.12 | 0.00 | 95 | 1019.1 | |
| 20260831060901 | 69 | 0.0 | 0.0 | 0.00 | 0.12 | 0.00 | 96 | 1018.6 | |
| 20260831060528 | 68 | 0.0 | 0.0 | 0.00 | 0.12 | 0.00 | 95 | 1019.2 | |
| 20260831060340 | 69 | 0.0 | 0.0 | 0.00 | 0.12 | 0.00 | 96 | 1018.6 | |
| 20260831060052 | 68 | 0.0 | 0.0 | 0.00 | 0.12 | 0.00 | 95 | 1019.2 | |
| 20260831055849 | 69 | 0.0 | 0.0 | 0.00 | 0.12 | 0.00 | 96 | 1018.7 | |
| 20260831055524 | 68 | 0.0 | 0.0 | 0.00 | 0.12 | 0.00 | 95 | 1019.2 | |
| 20260831055342 | 69 | 0.0 | 0.0 | 0.00 | 0.12 | 0.00 | 96 | 1018.7 | |
| 20260831055024 | 68 | 0.0 | 0.0 | 0.00 | 0.12 | 0.00 | 95 | 1019.2 | |
| 20260831054902 | 69 | 0.0 | 0.0 | 0.00 | 0.12 | 0.00 | 96 | 1018.8 | |
| 20260831054551 | 68 | 0.0 | 0.0 | 0.00 | 0.12 | 0.00 | 95 | 1019.3 | |
| 20260831054338 | 69 | 0.0 | 0.0 | 0.00 | 0.12 | 0.00 | 96 | 1018.8 | |
| 20260831054027 | 68 | 0.0 | 0.0 | 0.00 | 0.12 | 0.00 | 95 | 1019.3 | |
| 20260831053838 | 69 | 0.0 | 0.0 | 0.00 | 0.12 | 0.00 | 96 | 1018.9 | |
| 20260831053525 | 69 | 0.0 | 0.0 | 0.00 | 0.12 | 0.00 | 95 | 1019.4 | |
| 20260831053340 | 69 | 0.0 | 0.0 | 0.00 | 0.12 | 0.00 | 96 | 1018.9 | |
| 20260831053046 | 69 | 0.0 | 0.0 | 0.00 | 0.12 | 0.00 | 95 | 1019.3 | |
| 20260831052840 | 69 | 0.0 | 0.0 | 0.00 | 0.12 | 0.00 | 96 | 1018.9 | |
| 20260831052529 | 69 | 0.0 | 0.0 | 0.00 | 0.12 | 0.00 | 95 | 1019.3 | |
| 20260831052341 | 69 | 0.0 | 0.0 | 0.00 | 0.12 | 0.00 | 96 | 1018.9 | |
| 20260831052025 | 69 | 0.0 | 0.0 | 0.00 | 0.12 | 0.00 | 95 | 1019.3 | |
| 20260831051845 | 69 | 0.0 | 0.0 | 0.00 | 0.12 | 0.00 | 95 | 1018.8 | |
| 20260831051604 | 69 | 0.0 | 0.0 | 0.00 | 0.12 | 0.00 | 95 | 1019.4 | |
| 20260831051345 | 69 | 0.0 | 0.0 | 0.00 | 0.12 | 0.00 | 96 | 1018.9 | |
| 20260831051028 | 69 | 0.0 | 0.0 | 0.00 | 0.12 | 0.00 | 95 | 1019.2 | |
| 20260831050846 | 69 | 0.0 | 0.0 | 0.00 | 0.12 | 0.00 | 96 | 1018.8 | |
| 20260831050527 | 69 | 0.0 | 0.0 | 0.00 | 0.12 | 0.00 | 95 | 1019.1 | |
| 20260831050345 | 69 | 0.0 | 0.0 | 0.00 | 0.12 | 0.00 | 96 | 1018.8 | |
| 20260831050048 | 69 | 0.0 | 0.0 | 0.00 | 0.12 | 0.00 | 95 | 1019.2 | |
| 20260831045845 | 70 | 0.0 | 0.0 | 0.00 | 0.12 | 0.00 | 96 | 1018.8 | |
| 20260831045529 | 69 | 0.0 | 0.0 | 0.00 | 0.12 | 0.00 | 95 | 1019.2 | |
| 20260831045343 | 70 | 0.0 | 0.0 | 0.00 | 0.12 | 0.00 | 96 | 1018.8 | |
| 20260831045024 | 69 | 0.0 | 0.0 | 0.00 | 0.12 | 0.00 | 95 | 1019.1 | |
| 20260831044838 | 70 | 0.0 | 0.0 | 0.00 | 0.12 | 0.00 | 96 | 1018.9 | |
| 20260831044548 | 69 | 0.0 | 0.0 | 0.00 | 0.12 | 0.00 | 95 | 1019.3 | |
| 20260831044333 | 70 | 0.0 | 0.0 | 0.00 | 0.12 | 0.00 | 96 | 1018.9 | |
| 20260831044024 | 69 | 0.0 | 0.0 | 0.00 | 0.12 | 0.00 | 95 | 1019.3 | |
| 20260831043849 | 70 | 0.0 | 0.0 | 0.00 | 0.12 | 0.00 | 96 | 1019.0 | |
| 20260831043524 | 69 | 0.0 | 0.0 | 0.00 | 0.12 | 0.00 | 95 | 1019.3 | |
| 20260831043345 | 70 | 0.0 | 0.0 | 0.00 | 0.12 | 0.00 | 96 | 1019.0 | |
| 20260831043045 | 69 | 0.0 | 0.0 | 0.00 | 0.12 | 0.00 | 95 | 1019.3 | |
| 20260831042842 | 70 | 0.0 | 0.0 | 0.00 | 0.12 | 0.00 | 96 | 1018.9 | |
| 20260831042524 | 69 | 0.0 | 0.0 | 0.00 | 0.12 | 0.00 | 95 | 1019.2 | |
| 20260831042403 | 70 | 0.0 | 0.0 | 0.00 | 0.12 | 0.00 | 96 | 1018.8 | |
| 20260831042024 | 69 | 0.0 | 0.0 | 0.00 | 0.12 | 0.00 | 95 | 1019.2 | |
| 20260831041856 | 70 | 0.0 | 0.0 | 0.00 | 0.12 | 0.00 | 96 | 1018.9 | |
| 20260831041551 | 69 | 0.0 | 0.0 | 0.00 | 0.12 | 0.00 | 95 | 1019.2 | |
| 20260831041350 | 70 | 0.0 | 0.0 | 0.00 | 0.12 | 0.00 | 95 | 1019.1 | |
| 20260831041025 | 69 | 0.0 | 0.0 | 0.00 | 0.12 | 0.00 | 95 | 1019.4 | |
| 20260831040842 | 70 | 0.0 | 0.0 | 0.00 | 0.12 | 0.00 | 95 | 1019.1 | |
| 20260831040526 | 69 | 0.0 | 0.0 | 0.00 | 0.12 | 0.00 | 95 | 1019.5 | |
| 20260831040339 | 70 | 0.0 | 0.0 | 0.00 | 0.12 | 0.00 | 95 | 1019.2 | |
| 20260831040047 | 69 | 0.0 | 0.0 | 0.00 | 0.12 | 0.00 | 95 | 1019.5 | |
| 20260831035833 | 70 | 0.0 | 0.0 | 0.00 | 0.12 | 0.12 | 96 | 1019.2 | |
| 20260831035525 | 69 | 0.0 | 0.0 | 0.00 | 0.12 | 0.12 | 95 | 1019.5 | |
| 20260831035331 | 70 | 0.0 | 0.0 | 0.00 | 0.12 | 0.12 | 96 | 1019.2 | |
| 20260831035027 | 69 | 0.0 | 0.0 | 0.00 | 0.12 | 0.12 | 95 | 1019.4 | |
| 20260831034830 | 70 | 0.0 | 0.0 | 0.00 | 0.12 | 0.12 | 96 | 1019.1 | |
| 20260831034546 | 70 | 0.0 | 0.0 | 0.00 | 0.12 | 0.12 | 95 | 1019.4 | |
| 20260831034347 | 70 | 0.0 | 0.0 | 0.00 | 0.12 | 0.12 | 96 | 1019.1 | |
| 20260831034026 | 70 | 0.0 | 0.0 | 0.00 | 0.12 | 0.12 | 95 | 1019.4 | |
| 20260831033826 | 70 | 0.0 | 0.0 | 0.00 | 0.12 | 0.12 | 96 | 1019.1 | |
| 20260831033524 | 70 | 0.0 | 0.0 | 0.00 | 0.12 | 0.12 | 95 | 1019.5 | |
| 20260831033346 | 70 | 0.0 | 0.0 | 0.00 | 0.12 | 0.12 | 95 | 1019.2 | |
| 20260831033052 | 70 | 0.0 | 0.0 | 0.00 | 0.12 | 0.12 | 95 | 1019.5 | |
| 20260831032846 | 70 | 0.0 | 0.0 | 0.00 | 0.12 | 0.12 | 95 | 1019.1 | |
| 20260831032527 | 70 | 0.0 | 0.0 | 0.00 | 0.12 | 0.12 | 95 | 1019.4 | |
| 20260831032346 | 70 | 0.0 | 0.0 | 0.00 | 0.12 | 0.12 | 95 | 1019.0 | |
| 20260831032025 | 70 | 0.0 | 0.0 | 0.00 | 0.12 | 0.12 | 95 | 1019.4 | |
| 20260831031846 | 70 | 0.0 | 0.0 | 0.00 | 0.12 | 0.12 | 95 | 1019.0 | |
| 20260831031547 | 70 | 0.0 | 0.0 | 0.00 | 0.12 | 0.12 | 95 | 1019.4 | |
| 20260831031338 | 70 | 0.0 | 0.0 | 0.00 | 0.12 | 0.12 | 95 | 1019.0 | |
| 20260831031025 | 70 | 0.0 | 0.0 | 0.00 | 0.12 | 0.12 | 95 | 1019.6 | |
| 20260831030837 | 70 | 0.0 | 0.0 | 0.00 | 0.12 | 0.12 | 95 | 1019.1 | |
| 20260831030525 | 70 | 0.0 | 0.0 | 0.00 | 0.12 | 0.12 | 95 | 1019.6 | |
| 20260831030354 | 70 | 0.0 | 0.0 | 0.00 | 0.12 | 0.12 | 95 | 1019.2 | |
| 20260831030104 | 70 | 0.0 | 0.0 | 0.00 | 0.12 | 0.12 | 95 | 1019.6 | |
| 20260831025832 | 70 | 0.0 | 0.0 | 0.00 | 0.12 | 0.12 | 95 | 1019.3 | |
| 20260831025525 | 70 | 0.0 | 0.0 | 0.00 | 0.12 | 0.12 | 95 | 1019.7 | |
| 20260831025331 | 70 | 0.0 | 0.0 | 0.00 | 0.12 | 0.12 | 95 | 1019.2 | |
| 20260831025024 | 70 | 0.0 | 0.0 | 0.00 | 0.12 | 0.12 | 95 | 1019.7 | |
| 20260831024851 | 70 | 0.0 | 0.0 | 0.00 | 0.12 | 0.12 | 95 | 1019.4 | |
| 20260831024609 | 70 | 0.0 | 0.0 | 0.00 | 0.12 | 0.12 | 95 | 1019.8 | |
| 20260831024328 | 70 | 0.0 | 0.0 | 0.00 | 0.12 | 0.12 | 95 | 1019.4 | |
| 20260831024025 | 70 | 0.0 | 0.0 | 0.00 | 0.12 | 0.12 | 95 | 1019.8 | |
| 20260831023849 | 70 | 0.0 | 0.0 | 0.00 | 0.12 | 0.12 | 95 | 1019.4 | |
| 20260831023523 | 70 | 0.0 | 0.0 | 0.00 | 0.12 | 0.12 | 94 | 1019.9 | |
| 20260831023348 | 70 | 0.0 | 0.0 | 0.00 | 0.12 | 0.12 | 95 | 1019.4 | |
| 20260831023052 | 70 | 0.0 | 0.0 | 0.00 | 0.12 | 0.12 | 94 | 1019.8 | |
| 20260831022846 | 70 | 0.0 | 0.0 | 0.00 | 0.12 | 0.12 | 95 | 1019.5 | |
| 20260831022525 | 70 | 0.0 | 0.0 | 0.00 | 0.12 | 0.12 | 94 | 1020.0 | |
| 20260831022345 | 70 | 0.0 | 0.0 | 0.00 | 0.12 | 0.12 | 95 | 1019.5 | |
| 20260831022026 | 70 | 0.0 | 0.0 | 0.00 | 0.12 | 0.12 | 94 | 1019.9 | |
| 20260831021841 | 70 | 0.0 | 0.0 | 0.00 | 0.12 | 0.12 | 95 | 1019.5 | |
| 20260831021544 | 70 | 0.0 | 0.0 | 0.00 | 0.12 | 0.12 | 94 | 1020.0 | |
| 20260831021352 | 70 | 0.0 | 0.0 | 0.00 | 0.12 | 0.12 | 94 | 1019.5 | |
| 20260831021031 | 70 | 0.0 | 0.0 | 0.00 | 0.12 | 0.12 | 94 | 1019.9 | |
| 20260831020826 | 70 | 0.0 | 0.0 | 0.00 | 0.12 | 0.12 | 94 | 1019.5 | |
| 20260831020526 | 70 | 0.0 | 0.0 | 0.00 | 0.12 | 0.12 | 94 | 1019.9 | |
| 20260831020406 | 70 | 0.0 | 0.0 | 0.00 | 0.12 | 0.12 | 94 | 1019.4 | |
| 20260831020046 | 70 | 0.0 | 0.0 | 0.00 | 0.12 | 0.12 | 94 | 1019.9 | |
| 20260831015826 | 70 | 0.0 | 0.0 | 0.00 | 0.12 | 0.12 | 94 | 1019.4 | |
| 20260831015526 | 70 | 0.0 | 0.0 | 0.00 | 0.12 | 0.12 | 94 | 1019.8 | |
| 20260831015348 | 71 | 0.0 | 0.0 | 0.00 | 0.12 | 0.12 | 94 | 1019.5 | |
| 20260831015024 | 70 | 0.0 | 0.0 | 0.00 | 0.12 | 0.12 | 94 | 1019.9 | |
| 20260831014903 | 71 | 0.0 | 0.0 | 0.00 | 0.12 | 0.12 | 94 | 1019.5 | |
| 20260831014544 | 70 | 0.0 | 0.0 | 0.00 | 0.12 | 0.12 | 94 | 1019.8 | |
| 20260831014338 | 71 | 0.0 | 0.0 | 0.00 | 0.12 | 0.12 | 94 | 1019.4 | |
| 20260831014025 | 70 | 0.0 | 0.0 | 0.00 | 0.12 | 0.12 | 94 | 1019.9 | |
| 20260831013831 | 71 | 0.0 | 0.0 | 0.00 | 0.12 | 0.12 | 94 | 1019.5 | |
| 20260831013526 | 70 | 0.0 | 0.0 | 0.00 | 0.12 | 0.12 | 94 | 1020.0 | |
| 20260831013330 | 71 | 0.0 | 0.0 | 0.00 | 0.12 | 0.12 | 94 | 1019.5 | |
| 20260831013109 | 70 | 0.0 | 0.0 | 0.00 | 0.12 | 0.12 | 94 | 1019.9 | |
| 20260831012832 | 71 | 0.0 | 0.0 | 0.00 | 0.12 | 0.12 | 94 | 1019.4 | |
| 20260831012526 | 70 | 0.0 | 0.0 | 0.00 | 0.12 | 0.12 | 94 | 1020.0 | |
| 20260831012348 | 71 | 0.0 | 0.0 | 0.00 | 0.12 | 0.12 | 94 | 1019.4 | |
| 20260831012025 | 70 | 0.0 | 0.0 | 0.00 | 0.12 | 0.12 | 94 | 1019.9 | |
| 20260831011843 | 71 | 0.0 | 0.0 | 0.01 | 0.12 | 0.12 | 94 | 1019.4 | |
| 20260831011550 | 70 | 0.0 | 0.0 | 0.01 | 0.12 | 0.12 | 93 | 1019.8 | |
| 20260831011338 | 71 | 0.0 | 0.0 | 0.01 | 0.12 | 0.12 | 94 | 1019.3 | |
| 20260831011030 | 70 | 0.0 | 0.0 | 0.01 | 0.12 | 0.12 | 93 | 1019.8 | |
| 20260831010834 | 71 | 0.0 | 0.0 | 0.02 | 0.12 | 0.12 | 94 | 1019.3 | |
| 20260831010528 | 70 | 0.0 | 0.0 | 0.02 | 0.12 | 0.12 | 93 | 1019.9 | |
| 20260831010331 | 71 | 0.0 | 0.0 | 0.03 | 0.12 | 0.12 | 94 | 1019.3 | |
| 20260831010045 | 71 | 0.0 | 0.0 | 0.03 | 0.12 | 0.12 | 93 | 1019.9 | |
| 20260831005830 | 71 | 0.0 | 0.0 | 0.04 | 0.12 | 0.12 | 94 | 1019.3 | |
| 20260831005528 | 71 | 0.0 | 0.0 | 0.04 | 0.12 | 0.12 | 93 | 1019.9 | |
| 20260831005333 | 71 | 0.0 | 0.0 | 0.04 | 0.12 | 0.12 | 94 | 1019.1 | |
| 20260831005025 | 71 | 0.0 | 0.0 | 0.05 | 0.12 | 0.12 | 93 | 1019.7 | |
| 20260831004848 | 71 | 0.0 | 0.0 | 0.06 | 0.12 | 0.12 | 94 | 1019.1 | |
| 20260831004544 | 71 | 0.0 | 0.0 | 0.06 | 0.12 | 0.12 | 93 | 1019.7 | |
| 20260831004341 | 71 | 0.0 | 0.0 | 0.07 | 0.12 | 0.12 | 93 | 1018.9 | |
| 20260831004031 | 71 | 0.0 | 0.0 | 0.07 | 0.12 | 0.12 | 93 | 1019.7 | |
| 20260831003841 | 71 | 0.0 | 0.0 | 0.07 | 0.12 | 0.12 | 93 | 1018.9 | |
| 20260831003528 | 71 | 0.0 | 0.0 | 0.07 | 0.12 | 0.12 | 92 | 1019.7 | |
| 20260831003335 | 71 | 0.0 | 0.0 | 0.07 | 0.12 | 0.12 | 93 | 1019.1 | |
| 20260831003051 | 71 | 0.0 | 0.0 | 0.08 | 0.12 | 0.12 | 92 | 1019.6 | |
| 20260831002847 | 72 | 0.0 | 0.0 | 0.08 | 0.12 | 0.12 | 93 | 1019.0 | |
| 20260831002527 | 71 | 0.0 | 0.0 | 0.10 | 0.12 | 0.12 | 92 | 1019.6 | |
| 20260831002343 | 72 | 0.0 | 0.0 | 0.10 | 0.12 | 0.12 | 93 | 1019.1 | |
| 20260831002025 | 72 | 0.0 | 0.0 | 0.10 | 0.12 | 0.12 | 93 | 1019.7 | |
| 20260831001838 | 72 | 0.0 | 0.0 | 0.09 | 0.11 | 0.11 | 93 | 1019.2 | |
| 20260831001546 | 72 | 0.0 | 0.0 | 0.09 | 0.11 | 0.11 | 92 | 1019.8 | |
| 20260831001332 | 72 | 0.0 | 0.0 | 0.09 | 0.11 | 0.11 | 93 | 1019.2 | |
| 20260831001028 | 72 | 0.0 | 0.0 | 0.10 | 0.11 | 0.11 | 92 | 1019.6 | |
| 20260831000832 | 73 | 0.0 | 0.0 | 0.10 | 0.10 | 0.10 | 93 | 1018.8 | |
| 20260831000524 | 72 | 0.0 | 0.0 | 0.10 | 0.10 | 0.10 | 92 | 1019.5 | |
| 20260831000333 | 73 | 0.0 | 0.0 | 0.09 | 0.09 | 0.09 | 92 | 1019.1 | |
| 20260831000045 | 73 | 0.0 | 0.0 | 0.08 | 0.08 | 0.08 | 91 | 1019.7 | |
| 20260830235832 | 74 | 0.0 | 0.0 | 0.08 | 0.08 | 0.08 | 92 | 1019.3 | |
| 20260830235524 | 74 | 0.0 | 0.0 | 0.08 | 0.08 | 0.08 | 91 | 1019.8 | |
| 20260830235334 | 74 | 0.0 | 0.0 | 0.07 | 0.07 | 0.07 | 91 | 1019.3 | |
| 20260830235025 | 75 | 0.0 | 0.0 | 0.07 | 0.07 | 0.07 | 90 | 1019.9 | |
| 20260830234837 | 75 | 0.0 | 0.0 | 0.06 | 0.06 | 0.06 | 91 | 1019.4 | |
| 20260830234544 | 76 | 0.0 | 0.0 | 0.06 | 0.06 | 0.06 | 90 | 1019.9 | |
| 20260830234334 | 76 | 0.0 | 0.0 | 0.05 | 0.05 | 0.05 | 90 | 1019.2 | |
| 20260830234024 | 76 | 0.0 | 0.0 | 0.05 | 0.05 | 0.05 | 89 | 1019.8 | |
| 20260830233828 | 77 | 0.0 | 0.0 | 0.05 | 0.05 | 0.05 | 89 | 1019.1 | |
| 20260830233525 | 77 | 0.0 | 0.0 | 0.05 | 0.05 | 0.05 | 89 | 1019.6 | |
| 20260830233334 | 78 | 0.0 | 0.0 | 0.04 | 0.04 | 0.04 | 89 | 1018.9 | |
| 20260830233045 | 78 | 0.0 | 0.0 | 0.04 | 0.04 | 0.04 | 88 | 1019.3 | |
| 20260830232851 | 78 | 0.0 | 0.0 | 0.04 | 0.04 | 0.04 | 89 | 1018.7 | |
| 20260830232529 | 78 | 0.0 | 0.0 | 0.02 | 0.02 | 0.02 | 87 | 1019.2 | |
| 20260830232403 | 79 | 0.0 | 0.0 | 0.02 | 0.02 | 0.02 | 87 | 1018.5 | |
| 20260830232027 | 79 | 0.0 | 0.0 | 0.02 | 0.02 | 0.02 | 86 | 1019.1 | |
| 20260830231835 | 79 | 0.0 | 0.0 | 0.02 | 0.02 | 0.02 | 86 | 1018.5 | |
| 20260830231546 | 79 | 0.0 | 0.0 | 0.02 | 0.02 | 0.02 | 85 | 1019.1 | |
| 20260830231358 | 80 | 0.0 | 0.0 | 0.02 | 0.02 | 0.02 | 85 | 1018.5 | |
| 20260830231024 | 80 | 0.0 | 0.0 | 0.01 | 0.01 | 0.01 | 84 | 1019.1 | |
| 20260830230913 | 80 | 0.0 | 0.0 | 0.00 | 0.00 | 0.00 | 84 | 1018.5 | |
| 20260830230524 | 80 | 0.0 | 0.0 | 0.00 | 0.00 | 0.00 | 82 | 1019.1 | |
| 20260830230348 | 81 | 0.0 | 0.0 | 0.00 | 0.00 | 0.00 | 82 | 1018.4 | |
| 20260830230045 | 81 | 0.0 | 0.0 | 0.00 | 0.00 | 0.00 | 81 | 1018.9 | |
| 20260830225903 | 81 | 0.0 | 0.0 | 0.00 | 0.00 | 0.00 | 80 | 1018.4 | |
| 20260830225525 | 81 | 0.0 | 0.0 | 0.00 | 0.00 | 0.00 | 79 | 1019.0 | |
| 20260830225337 | 82 | 0.0 | 0.0 | 0.00 | 0.00 | 0.00 | 79 | 1018.5 | |
| 20260830225025 | 81 | 0.0 | 0.0 | 0.00 | 0.00 | 0.00 | 77 | 1019.2 | |
| 20260830224852 | 82 | 0.0 | 0.0 | 0.00 | 0.00 | 0.00 | 77 | 1018.6 | |
| 20260830224555 | 82 | 0.0 | 0.0 | 0.00 | 0.00 | 0.00 | 76 | 1019.2 | |
| 20260830224413 | 82 | 0.0 | 0.0 | 0.00 | 0.00 | 0.00 | 76 | 1018.6 | |
| 20260830224026 | 82 | 0.0 | 0.0 | 0.00 | 0.00 | 0.00 | 74 | 1019.2 | |
| 20260830223846 | 83 | 0.0 | 0.0 | 0.00 | 0.00 | 0.00 | 74 | 1018.6 | |
| 20260830223524 | 82 | 0.0 | 0.0 | 0.00 | 0.00 | 0.00 | 74 | 1019.1 | |
| 20260830223342 | 83 | 0.0 | 0.0 | 0.00 | 0.00 | 0.00 | 74 | 1018.5 | |
| 20260830223048 | 83 | 0.0 | 0.0 | 0.00 | 0.00 | 0.00 | 73 | 1019.0 | |
| 20260830222835 | 83 | 150 | 0.0 | 0.0 | 0.00 | 0.00 | 0.00 | 74 | 1018.5 |
| 20260830222523 | 83 | 0.0 | 0.0 | 0.00 | 0.00 | 0.00 | 73 | 1019.1 | |
| 20260830222332 | 84 | 150 | 0.0 | 0.0 | 0.00 | 0.00 | 0.00 | 73 | 1018.4 |
| 20260830222027 | 83 | 0 | 0.0 | 0.0 | 0.00 | 0.00 | 0.00 | 71 | 1018.9 |
| 20260830221830 | 84 | 150 | 0.0 | 0.0 | 0.00 | 0.00 | 0.00 | 70 | 1018.4 |
| 20260830221548 | 83 | 0 | 0.0 | 5.0 | 0.00 | 0.00 | 0.00 | 70 | 1018.9 |
| 20260830221333 | 84 | 123 | 0.0 | 5.0 | 0.00 | 0.00 | 0.00 | 71 | 1018.3 |
| 20260830221024 | 84 | 0 | 0.0 | 5.0 | 0.00 | 0.00 | 0.00 | 70 | 1018.8 |
| 20260830220830 | 84 | 123 | 0.0 | 5.0 | 0.00 | 0.00 | 0.00 | 72 | 1018.2 |
| 20260830220525 | 84 | 208 | 0.0 | 5.0 | 0.00 | 0.00 | 0.00 | 70 | 1018.7 |
| 20260830220351 | 84 | 185 | 1.0 | 5.0 | 0.00 | 0.00 | 0.00 | 70 | 1018.1 |
| 20260830220045 | 84 | 205 | 0.0 | 5.0 | 0.00 | 0.00 | 0.00 | 70 | 1018.6 |
| 20260830215847 | 84 | 175 | 1.0 | 5.0 | 0.00 | 0.00 | 0.00 | 71 | 1018.2 |
| 20260830215526 | 84 | 0 | 0.0 | 5.0 | 0.00 | 0.00 | 0.00 | 71 | 1018.8 |
| 20260830215344 | 84 | 180 | 1.0 | 5.0 | 0.00 | 0.00 | 0.00 | 73 | 1018.2 |
| 20260830215023 | 84 | 0 | 0.0 | 3.0 | 0.00 | 0.00 | 0.00 | 71 | 1018.8 |
| 20260830214847 | 84 | 185 | 0.0 | 3.0 | 0.00 | 0.00 | 0.00 | 70 | 1018.1 |
| 20260830214545 | 84 | 0 | 0.0 | 3.0 | 0.00 | 0.00 | 0.00 | 70 | 1018.7 |
| 20260830214340 | 84 | 183 | 1.0 | 3.0 | 0.00 | 0.00 | 0.00 | 70 | 1018.1 |
| 20260830214024 | 84 | 0 | 0.0 | 0.0 | 0.00 | 0.00 | 0.00 | 72 | 1018.7 |
| 20260830213840 | 84 | 180 | 0.0 | 0.0 | 0.00 | 0.00 | 0.00 | 70 | 1018.1 |
| 20260830213524 | 84 | 0 | 0.0 | 2.0 | 0.00 | 0.00 | 0.00 | 71 | 1018.6 |
| 20260830213357 | 84 | 181 | 0.0 | 2.0 | 0.00 | 0.00 | 0.00 | 70 | 1018.1 |
| 20260830213050 | 83 | 0 | 0.0 | 2.0 | 0.00 | 0.00 | 0.00 | 71 | 1018.6 |
| 20260830212833 | 83 | 180 | 0.0 | 2.0 | 0.00 | 0.00 | 0.00 | 74 | 1018.1 |
| 20260830212527 | 83 | 0 | 0.0 | 0.0 | 0.00 | 0.00 | 0.00 | 73 | 1018.7 |
| 20260830212348 | 83 | 215 | 0.0 | 0.0 | 0.00 | 0.00 | 0.00 | 75 | 1018.1 |
| 20260830212025 | 83 | 0 | 0.0 | 0.0 | 0.00 | 0.00 | 0.00 | 74 | 1018.7 |
| 20260830211846 | 83 | 215 | 0.0 | 0.0 | 0.00 | 0.00 | 0.00 | 76 | 1018.2 |
| 20260830211545 | 83 | 0 | 0.0 | 0.0 | 0.00 | 0.00 | 0.00 | 75 | 1018.7 |
| 20260830211343 | 83 | 215 | 0.0 | 0.0 | 0.00 | 0.00 | 0.00 | 75 | 1018.1 |
| 20260830211027 | 83 | 0 | 0.0 | 0.0 | 0.00 | 0.00 | 0.00 | 74 | 1018.7 |
| 20260830210838 | 84 | 215 | 0.0 | 0.0 | 0.00 | 0.00 | 0.00 | 74 | 1018.1 |
| 20260830210524 | 83 | 0 | 0.0 | 0.0 | 0.00 | 0.00 | 0.00 | 73 | 1018.7 |
| 20260830210334 | 84 | 215 | 0.0 | 0.0 | 0.00 | 0.00 | 0.00 | 74 | 1018.2 |
| 20260830210051 | 83 | 0 | 0.0 | 0.0 | 0.00 | 0.00 | 0.00 | 74 | 1018.8 |
| 20260830205852 | 84 | 215 | 0.0 | 0.0 | 0.00 | 0.00 | 0.00 | 75 | 1018.2 |
| 20260830205524 | 84 | 0 | 0.0 | 0.0 | 0.00 | 0.00 | 0.00 | 73 | 1018.7 |
| 20260830205412 | 84 | 215 | 0.0 | 0.0 | 0.00 | 0.00 | 0.00 | 73 | 1018.1 |
| 20260830205029 | 84 | 0 | 0.0 | 0.0 | 0.00 | 0.00 | 0.00 | 72 | 1018.7 |
| 20260830204844 | 84 | 215 | 0.0 | 0.0 | 0.00 | 0.00 | 0.00 | 72 | 1018.1 |
| 20260830204544 | 84 | 0 | 0.0 | 0.0 | 0.00 | 0.00 | 0.00 | 71 | 1018.8 |
| 20260830204402 | 84 | 215 | 0.0 | 0.0 | 0.00 | 0.00 | 0.00 | 69 | 1018.3 |
| 20260830204024 | 84 | 0 | 0.0 | 0.0 | 0.00 | 0.00 | 0.00 | 68 | 1018.9 |